Theta_e
316 319 319 319 320 320 319 319 319 320 319 319 320 319 319 318 318 320 319 315 314 316 318 319 319 319 320 320 317 314 311 311 311 312 311 310 309 308 307 307 306 305 304 302 301 301 301 301 301 302 302 302 302 302 304 307 307 308 309 310 309 308 308 309 309 310 310 310 308 307 306 305 304 305 306 306 306 306 306 306 307 307 308 308 309 309
316 319 320 320 321 320 320 319 319 319 318 319 318 318 319 319 319 320 318 315 314 316 318 319 319 319 319 319 319 316 312 311 312 312 312 311 309 309 308 307 306 304 303 302 301 301 301 301 301 302 302 302 303 302 303 305 306 307 307 307 307 306 306 306 307 307 307 306 305 305 304 302 301 301 302 302 302 302 302 303 303 303 303 303 304 305
317 319 320 320 320 319 319 318 318 318 318 319 319 319 319 319 320 320 317 315 314 315 317 319 318 319 319 318 319 317 314 314 314 313 314 312 310 309 308 307 306 304 303 302 301 301 302 301 301 302 301 301 302 301 302 303 304 305 305 306 306 306 306 305 306 306 306 305 305 305 303 302 300 299 300 300 299 299 300 300 300 299 300 300 300 300
320 320 320 319 318 318 318 317 317 318 318 319 319 319 319 320 321 319 317 315 314 314 317 318 317 318 319 318 319 318 315 313 311 310 311 311 310 309 308 307 305 304 303 302 301 301 302 302 302 301 301 301 301 301 301 301 302 303 304 305 305 306 306 307 308 308 308 306 305 303 301 300 299 298 298 298 298 298 298 298 298 298 298 298 298 298
321 319 317 318 317 317 318 317 317 317 318 319 320 319 319 320 320 319 318 316 314 315 315 316 318 319 320 321 321 316 311 310 308 307 308 308 309 308 307 306 305 304 304 302 301 301 302 302 301 301 300 300 301 300 300 300 301 301 303 304 304 305 306 307 308 307 306 304 302 300 299 298 298 297 296 296 295 295 295 296 296 296 296 295 295 295
320 317 315 317 317 317 319 318 318 319 319 320 320 320 319 320 320 319 319 318 318 320 316 316 322 323 320 322 322 315 311 311 309 308 308 308 307 307 305 305 304 304 303 302 302 301 302 301 300 300 300 300 300 299 299 299 300 301 302 303 303 303 303 303 303 302 302 301 300 299 298 298 297 295 294 293 292 292 291 292 292 292 292 292 291 291
318 315 315 317 317 318 319 318 319 319 319 321 321 319 318 319 320 319 319 319 322 324 317 315 322 324 320 321 321 316 313 313 310 308 309 308 307 306 305 305 304 303 302 302 301 301 301 301 300 300 300 299 298 297 298 298 299 300 301 301 301 301 301 300 300 299 299 299 299 299 298 297 295 293 292 291 290 289 289 288 288 288 288 288 288 288
317 315 316 317 317 319 319 319 320 318 319 322 321 319 318 319 319 320 320 320 322 322 318 315 319 323 322 322 320 317 315 316 313 310 309 309 308 306 305 305 303 302 301 301 300 300 301 301 301 300 298 298 297 296 297 297 298 299 300 300 300 300 300 299 299 298 298 298 298 297 295 294 293 291 290 290 289 288 287 287 287 286 287 287 287 287
318 317 318 317 318 320 319 320 320 317 319 321 318 317 318 318 320 320 320 321 320 321 322 319 319 322 323 321 320 318 317 319 318 316 312 309 308 306 305 305 303 302 301 301 300 300 300 300 300 299 297 296 295 295 296 297 298 298 299 299 299 299 299 298 298 297 297 297 296 295 293 292 291 290 289 289 288 288 287 287 286 286 286 286 286 287
317 314 315 317 319 320 318 317 318 318 318 318 315 316 317 317 318 319 320 321 320 321 323 322 320 323 324 321 320 320 318 319 320 318 314 309 307 306 305 304 302 301 301 301 300 300 300 299 297 297 296 295 295 295 296 297 298 298 298 298 298 298 298 298 297 297 296 296 295 294 292 291 290 289 289 289 288 288 287 287 286 286 285 285 286 286
313 309 312 315 317 317 314 312 313 316 316 316 316 318 318 318 317 318 319 319 321 323 323 322 320 322 324 322 320 320 319 319 319 316 313 309 307 306 305 303 302 301 301 300 299 299 298 297 296 295 295 294 294 295 295 296 297 297 297 297 297 297 297 296 296 296 295 294 294 293 292 291 290 289 289 289 289 289 288 287 286 285 285 285 285 285
314 313 314 314 313 313 314 313 312 312 314 316 318 319 320 320 318 318 319 318 323 327 322 319 319 321 324 322 320 320 317 315 316 315 312 309 307 306 304 303 302 301 300 299 298 298 297 296 295 295 295 294 294 294 294 295 295 296 295 295 296 296 295 295 294 295 294 294 293 292 292 291 290 289 289 289 289 288 288 287 287 286 285 285 284 284
318 317 317 314 311 312 316 317 314 312 314 316 318 319 323 325 322 323 323 320 324 325 317 315 319 322 323 320 319 320 316 313 313 312 311 309 307 306 304 303 302 301 300 299 298 298 297 297 296 295 295 294 293 293 293 293 294 294 294 294 295 294 294 293 293 294 294 293 292 292 291 290 290 289 289 288 288 288 288 288 287 287 286 285 284 284
322 321 318 316 314 312 316 319 318 316 315 316 319 321 324 327 328 329 327 324 325 321 313 313 318 321 321 318 319 318 313 310 309 308 309 309 307 305 304 303 302 301 300 299 299 298 297 297 296 295 295 294 293 293 292 292 293 293 293 293 293 293 292 293 293 293 293 292 291 291 291 290 289 289 288 288 288 288 288 288 287 286 285 285 284 284
326 325 320 319 318 314 315 318 320 319 316 316 319 320 323 326 328 330 327 326 325 319 313 313 317 320 319 316 314 312 307 305 305 305 306 307 307 305 303 302 302 301 300 300 299 298 298 297 296 295 294 294 293 292 292 292 292 292 292 292 292 292 292 292 292 292 292 291 291 291 290 289 289 288 288 288 288 287 287 286 286 285 285 284 284 284
326 326 321 317 315 314 316 317 318 320 318 317 318 320 322 323 324 325 322 319 319 318 316 314 317 318 317 314 309 306 306 304 304 304 304 305 305 304 303 302 302 301 300 300 299 298 298 297 296 295 294 293 293 292 292 292 292 292 292 292 291 291 291 291 291 291 291 290 290 289 289 288 288 288 287 287 287 286 286 286 285 285 285 285 284 284
325 324 319 314 314 313 314 316 316 319 320 318 318 320 320 318 320 323 321 316 315 321 322 317 316 317 316 315 310 307 307 305 304 305 305 305 305 304 303 303 302 301 300 300 299 299 298 297 296 295 294 293 292 292 292 291 292 292 292 291 291 291 290 290 290 290 289 289 289 288 288 288 288 287 287 287 286 286 286 286 285 285 285 284 284 284
323 322 316 314 316 312 309 313 314 315 317 318 318 319 317 316 317 320 322 321 321 324 324 319 319 318 318 318 313 309 309 307 305 306 305 305 304 304 304 303 302 302 301 300 300 299 298 297 296 295 294 293 292 292 291 291 291 292 291 291 291 290 290 289 289 289 289 288 288 288 287 287 287 287 287 286 286 286 286 285 285 285 284 284 284 284
322 323 317 313 315 311 308 312 315 313 314 314 316 317 318 320 320 319 322 324 325 327 325 321 320 319 319 318 315 313 313 310 307 306 306 305 304 304 304 304 303 302 301 300 300 299 298 297 296 295 293 292 292 291 291 291 291 291 290 290 290 290 289 289 288 288 288 288 287 287 287 287 287 286 286 286 286 285 285 285 284 284 284 284 284 285
319 323 321 312 312 312 310 314 317 316 313 312 313 315 317 319 320 320 321 322 324 326 326 324 322 320 319 318 316 316 315 313 310 307 306 306 305 304 305 304 303 302 301 301 300 299 299 297 296 295 293 292 291 291 291 290 290 290 290 290 289 289 289 288 288 287 287 287 287 287 286 286 286 286 286 286 285 285 285 285 284 284 285 285 286 286
318 321 322 314 310 313 314 315 318 318 316 313 314 316 317 317 317 318 319 320 321 323 325 326 324 320 318 317 318 317 316 314 312 309 308 307 306 305 305 304 304 303 302 301 300 300 299 297 296 295 293 292 291 291 291 290 289 289 289 289 289 288 288 287 287 287 287 287 286 286 286 286 286 286 286 285 285 285 284 284 284 285 286 287 287 287
319 319 321 316 312 314 316 314 314 316 316 315 315 317 317 317 317 319 322 321 319 321 322 323 325 322 315 314 315 316 316 315 313 311 309 308 307 306 305 305 304 303 303 302 301 300 299 298 296 294 293 292 291 290 290 289 289 289 289 289 288 288 287 287 287 287 286 286 286 286 286 286 286 285 285 285 285 284 284 285 285 286 287 287 287 287
320 319 320 319 317 316 315 312 311 311 312 314 315 316 317 318 318 321 324 322 318 319 320 319 322 321 313 310 310 311 313 314 313 312 311 309 308 307 306 305 304 303 303 302 301 300 299 298 296 294 293 292 291 290 290 289 289 289 288 288 288 288 287 287 286 286 286 286 286 286 285 285 285 285 285 284 284 284 285 285 286 287 287 287 287 287
319 318 319 321 319 316 313 311 310 310 311 314 315 315 317 318 319 320 320 318 318 320 320 319 322 321 313 308 308 306 306 308 308 310 310 308 307 306 305 305 304 304 303 302 301 300 299 298 296 294 293 292 291 290 290 289 289 289 288 288 288 287 287 287 286 286 286 286 285 285 285 285 285 285 284 284 284 284 285 286 287 287 287 287 287 287
318 318 319 321 322 321 318 315 314 313 312 314 315 315 316 317 319 320 316 315 319 321 320 320 323 321 313 307 306 305 305 306 306 306 307 307 306 305 304 304 303 303 303 302 301 299 298 297 296 294 294 293 292 291 290 289 289 289 289 288 288 287 287 287 286 286 286 285 285 285 285 285 285 285 284 284 284 284 285 286 287 287 287 287 287 287
319 320 319 322 325 326 325 323 320 317 313 313 314 316 316 316 319 320 318 318 321 321 321 322 322 319 312 308 308 307 307 307 306 304 304 305 305 304 304 303 303 303 302 302 301 299 298 297 297 295 294 293 292 291 290 290 289 289 289 288 288 287 287 287 286 286 286 285 285 285 285 285 285 285 284 284 284 285 286 287 287 287 287 287 287 287
318 320 320 322 325 325 326 325 323 319 316 315 316 316 316 317 318 318 319 320 321 320 321 322 321 318 314 311 311 310 309 309 308 305 303 303 304 303 303 303 302 302 302 301 300 299 298 297 297 296 295 294 292 291 291 290 290 289 289 289 288 287 287 287 286 286 285 285 285 285 285 285 285 285 284 284 284 285 286 287 287 287 287 287 287 287
316 319 320 321 323 323 323 323 320 319 318 318 318 316 316 317 318 318 319 319 319 320 321 321 321 321 317 313 313 313 310 309 309 307 305 303 303 303 303 302 301 301 301 301 300 299 298 298 298 297 296 294 293 292 291 290 290 289 289 289 288 287 287 286 286 286 285 285 285 285 285 285 285 285 284 284 285 286 287 287 287 287 287 287 286 286
317 319 320 321 321 321 321 320 318 318 319 318 318 318 316 316 317 317 318 318 319 320 321 321 321 322 318 313 313 313 310 309 310 309 307 305 303 302 302 301 301 300 300 300 300 299 299 298 298 298 296 294 293 292 291 290 290 289 289 289 288 287 287 286 286 286 285 285 285 285 285 285 285 285 284 285 285 286 287 287 287 287 287 286 286 286
316 317 319 321 321 320 320 320 319 317 318 318 319 318 317 316 316 316 316 317 318 319 319 320 321 320 318 315 313 312 311 310 310 308 307 305 303 302 301 301 301 300 300 299 299 299 299 299 298 298 297 295 293 292 291 291 290 290 289 289 288 287 287 286 286 286 285 285 285 285 285 285 285 285 285 285 286 286 286 286 286 287 287 286 286 285
314 316 319 320 320 320 319 319 320 319 318 318 319 318 318 317 316 316 316 316 317 318 317 318 320 319 316 315 315 314 312 310 309 308 306 305 303 302 302 302 301 300 300 299 299 299 298 298 298 298 297 295 294 292 291 291 290 290 289 289 288 287 287 286 286 286 286 285 285 286 285 285 285 285 285 285 286 286 286 286 286 286 286 286 285 285
314 316 319 319 319 320 320 319 320 318 317 317 318 318 318 318 317 316 316 315 316 317 317 317 318 317 316 316 315 312 311 310 309 307 306 304 303 302 302 302 301 301 300 299 299 299 298 297 297 297 297 295 294 293 292 291 291 290 289 289 288 288 287 287 286 286 286 286 286 286 286 285 285 285 285 286 286 286 286 286 286 286 286 286 285 284
314 315 316 318 319 320 320 320 319 317 317 318 318 317 317 317 317 315 315 315 315 316 317 317 317 316 315 316 315 311 309 310 311 309 308 306 304 302 302 302 302 301 301 300 299 298 297 297 297 297 296 296 295 294 293 292 291 290 290 289 288 288 287 287 287 286 286 286 286 286 286 285 285 285 285 286 286 286 286 286 286 286 286 285 285 284
314 315 315 316 320 320 319 318 317 318 320 320 318 318 318 316 316 316 315 315 314 314 315 315 317 317 314 313 315 313 310 312 313 311 308 306 304 303 302 303 303 302 301 300 299 298 298 297 297 296 296 296 295 295 294 293 292 291 290 290 289 288 288 287 287 286 286 286 286 286 286 285 285 285 285 285 286 285 285 286 286 286 286 285 284 284
312 313 314 315 318 318 316 316 319 321 321 316 311 312 314 314 315 315 315 314 313 313 314 314 315 315 312 311 312 312 310 309 309 307 305 305 304 304 303 303 303 302 301 300 299 299 298 298 297 296 296 295 295 294 294 293 292 292 291 290 289 289 288 288 287 286 286 286 286 286 286 285 285 285 285 285 285 285 285 285 286 285 285 284 284 283
313 313 314 316 317 315 314 317 322 321 318 312 305 305 310 314 315 315 315 315 313 312 313 313 312 312 310 309 308 307 306 304 303 303 302 303 304 304 303 303 302 301 301 300 299 299 298 298 297 297 296 295 294 294 294 293 293 292 291 290 290 289 288 288 287 287 286 286 286 286 286 285 285 285 285 285 285 285 285 285 285 285 285 284 283 283
315 314 314 316 317 316 316 317 319 319 320 315 307 305 310 314 315 316 317 317 315 314 313 312 312 311 308 305 303 301 301 301 302 302 300 300 302 303 302 302 301 300 300 299 299 299 298 298 297 296 295 294 294 293 293 293 292 292 291 291 290 289 289 288 287 287 287 286 286 286 286 286 285 285 285 285 285 285 285 285 284 284 284 283 283 282
313 314 315 317 318 317 318 318 317 319 321 317 310 306 307 309 312 315 317 317 315 314 314 312 312 312 309 304 300 299 301 304 305 305 301 299 299 300 300 300 299 299 298 298 297 297 296 296 296 295 294 293 292 292 292 292 291 291 291 291 290 289 289 288 288 287 287 287 287 286 286 286 285 285 285 285 285 285 285 284 284 283 283 283 282 281
309 311 313 315 317 316 317 318 318 319 318 314 308 303 301 305 310 314 316 315 313 312 313 314 312 311 309 304 300 301 304 307 309 307 302 299 298 297 298 297 296 296 296 296 295 295 294 294 293 293 293 292 292 292 291 291 291 291 290 290 290 289 289 288 288 288 288 288 287 287 286 286 286 286 285 285 285 285 285 284 284 283 282 282 281 281
308 309 311 313 316 315 315 317 317 317 315 310 304 300 299 302 307 314 316 314 310 307 308 311 312 309 306 302 300 303 307 309 309 304 299 298 297 296 296 296 295 295 294 294 294 294 293 293 293 292 292 292 292 292 292 292 291 290 290 289 289 289 289 290 290 290 289 289 288 288 287 286 286 286 286 286 286 286 285 284 283 282 282 281 281 280
308 309 310 313 314 314 316 317 315 315 313 307 301 297 298 301 307 314 314 308 304 303 301 305 310 307 303 301 301 304 306 304 301 298 295 295 296 295 294 295 294 294 293 292 293 293 293 293 293 293 293 293 293 293 293 292 291 290 290 289 288 289 291 292 291 291 290 290 289 289 288 287 287 287 287 286 286 285 284 284 283 282 282 281 280 279
309 309 309 311 313 314 315 315 315 315 311 304 298 295 297 304 311 311 306 300 300 301 300 302 305 304 301 301 301 302 301 297 295 295 294 294 295 294 293 292 292 292 291 291 292 293 293 293 293 293 293 293 293 293 293 292 292 291 289 288 289 291 292 292 291 291 291 290 290 289 289 289 288 288 287 287 286 285 284 283 282 282 281 280 279 279
309 310 310 311 312 312 313 313 316 316 307 300 299 299 300 306 309 305 300 297 297 299 299 300 300 300 300 301 300 298 296 293 294 294 293 293 294 293 292 292 291 290 290 289 291 292 292 292 292 292 292 292 292 293 293 292 291 290 289 289 291 292 292 291 291 291 290 290 289 289 289 289 288 288 287 287 286 285 283 283 282 281 280 279 278 277
310 310 310 311 311 312 313 313 312 309 304 300 302 304 304 303 301 299 300 298 295 295 297 299 299 297 298 300 298 295 294 293 293 293 293 293 293 292 292 291 291 291 290 289 290 292 292 292 292 292 292 291 292 292 292 292 291 290 289 290 291 291 291 290 290 289 289 289 289 288 288 288 288 287 287 286 285 284 283 282 281 280 279 278 277 276
309 307 307 309 309 308 309 308 303 300 299 299 300 302 302 300 297 297 299 299 297 296 296 299 300 297 296 297 296 294 294 293 292 292 293 293 292 292 292 291 290 290 290 289 290 291 292 292 291 291 291 290 291 292 291 291 291 290 290 291 291 290 290 290 289 289 289 288 288 288 288 287 287 287 286 285 284 283 282 281 280 279 278 277 277 276
301 300 302 305 305 304 303 300 297 297 298 297 297 298 298 297 297 299 299 299 298 297 296 298 299 297 294 295 295 294 294 293 292 292 292 292 291 291 291 290 290 289 289 289 289 290 291 291 290 290 290 290 290 290 291 291 290 290 290 290 290 290 290 289 289 289 288 288 288 287 287 286 286 285 284 284 283 282 281 280 280 279 277 277 276 275
297 296 300 302 304 306 304 298 294 295 297 296 296 295 295 295 296 298 298 298 297 296 295 296 296 295 293 294 294 294 293 292 292 292 291 291 291 290 290 290 289 289 289 289 290 290 289 289 289 288 288 288 289 289 290 290 290 290 290 290 290 289 289 288 288 288 288 288 287 286 286 285 284 284 283 282 281 280 279 279 279 278 277 276 275 275
300 298 300 302 301 301 298 294 291 292 293 294 295 295 295 295 294 294 295 295 294 294 293 293 294 294 293 293 293 293 293 292 292 292 291 291 291 290 290 289 289 288 289 289 289 289 289 288 288 288 288 288 289 289 289 289 289 290 289 289 288 288 288 287 287 287 287 287 286 285 285 284 283 282 282 281 280 279 279 278 278 277 277 277 276 276
299 299 301 300 299 297 294 292 292 293 294 293 294 294 294 294 294 294 294 292 291 292 292 291 291 291 292 292 292 293 293 292 292 292 292 291 291 290 290 289 288 288 289 289 289 289 288 288 288 288 288 289 290 289 289 289 289 289 288 287 286 286 286 286 286 285 285 284 283 283 283 282 281 281 280 280 279 278 278 278 278 277 277 276 276 276
298 300 299 298 299 300 297 295 294 296 297 295 294 294 294 293 294 295 294 292 291 291 291 291 290 289 289 291 291 292 294 293 291 291 292 291 290 290 290 289 289 288 288 289 288 288 287 288 288 288 288 289 289 288 288 288 288 287 286 285 285 284 284 284 283 283 282 282 281 281 281 280 279 278 277 277 276 275 275 275 276 276 275 275 275 275
298 299 298 298 300 300 298 296 295 296 297 296 295 296 295 293 293 294 293 292 292 291 290 291 292 291 290 290 289 290 293 293 291 291 292 291 290 290 289 289 289 288 288 288 287 286 286 287 287 287 288 289 288 287 287 286 286 285 285 284 284 283 283 282 282 281 281 281 280 280 279 278 276 276 274 273 273 273 272 272 273 274 274 274 274 274
Wind_Speed
3 5 6 8 9 9 11 13 13 9 5 6 7 8 9 8 9 6 1 4 1 4 9 11 13 14 14 13 9 11 12 11 11 11 9 7 6 6 6 5 5 5 4 5 4 3 2 2 3 3 4 4 4 4 4 7 10 10 12 15 17 14 10 10 12 14 17 18 19 20 20 20 20 20 20 19 18 18 17 16 16 16 15 15 14 14
3 7 9 11 11 9 8 10 12 9 6 8 8 8 9 8 9 6 3 4 3 3 9 11 13 16 14 14 13 9 12 12 13 13 12 10 8 6 7 7 6 5 5 5 5 4 3 3 3 4 4 5 4 4 4 6 9 10 10 11 12 11 9 8 9 10 12 12 14 16 18 18 18 19 20 21 20 19 18 18 18 19 18 17 17 16
6 9 12 13 7 4 4 5 9 10 9 9 7 7 8 6 8 5 5 5 3 3 7 10 11 15 14 14 15 12 13 13 11 10 9 10 10 8 8 8 7 6 5 6 6 5 5 4 4 4 5 5 4 4 5 6 7 7 9 10 10 10 11 11 11 13 14 14 16 18 19 20 21 22 22 22 22 21 21 21 21 21 20 20 20 19
6 7 11 10 4 4 5 6 7 8 8 8 7 7 7 6 6 5 4 4 5 5 6 8 9 12 14 14 16 13 8 5 3 2 2 5 8 8 8 8 8 8 7 7 7 7 7 6 5 5 5 5 4 4 5 5 5 5 7 10 11 11 13 14 14 16 17 19 21 22 23 24 25 25 24 24 23 22 22 22 22 22 22 22 22 22
10 1 2 6 6 7 8 7 8 7 7 9 10 9 8 8 8 7 3 2 5 8 7 7 9 10 11 14 14 5 3 2 3 3 4 5 6 6 7 7 7 7 7 8 7 8 8 7 6 5 5 5 5 4 5 6 5 6 9 11 12 12 13 15 17 18 20 22 24 25 24 22 21 20 19 20 21 22 24 24 25 25 24 24 25 25
11 3 5 6 6 7 9 8 9 8 7 8 10 12 12 12 10 10 6 2 6 7 5 5 7 6 4 8 8 6 4 5 6 8 10 10 9 7 7 7 7 6 6 7 8 8 8 8 7 6 6 6 5 5 7 9 8 7 10 12 13 14 16 18 19 19 21 22 21 18 16 14 14 14 14 14 16 20 23 25 25 26 25 26 26 26
4 4 4 6 6 7 8 8 10 9 8 7 4 7 11 12 11 11 8 4 5 5 2 4 7 6 3 6 5 7 7 9 9 11 12 12 11 10 8 8 8 8 7 7 7 9 8 8 8 8 7 6 5 6 8 10 10 10 12 13 14 17 19 20 18 17 15 15 13 12 13 13 14 15 15 14 16 19 22 24 25 25 25 25 25 25
4 7 5 6 6 8 8 9 9 10 8 4 2 0 6 8 9 10 9 7 6 5 2 6 6 8 8 10 7 7 7 9 11 13 12 12 12 11 10 9 10 9 9 8 8 9 10 10 10 9 8 6 6 7 9 11 11 12 14 14 16 18 20 20 19 16 12 11 13 16 19 19 18 19 19 18 20 21 23 24 25 25 25 24 25 24
4 8 8 9 9 8 8 6 6 11 9 2 4 2 0 2 5 6 7 7 6 6 6 7 6 6 8 8 7 8 9 12 12 13 13 13 12 12 11 10 10 10 10 9 9 10 11 11 10 9 9 7 8 9 10 13 13 14 15 15 17 18 19 19 18 16 15 17 20 23 25 25 23 23 22 21 21 22 23 24 23 23 24 23 23 23
3 2 3 7 8 7 4 2 2 7 6 2 5 4 4 1 1 2 5 5 5 7 9 8 9 7 8 6 7 7 8 12 10 7 10 13 12 12 11 11 11 10 9 9 10 11 11 11 10 9 9 8 9 12 12 14 15 15 15 16 17 17 17 17 17 18 20 22 24 25 28 28 26 23 21 20 20 19 21 21 20 22 22 22 22 21
4 2 1 3 3 1 4 7 5 1 3 6 5 3 2 2 2 2 4 3 5 9 10 12 14 10 7 4 6 6 3 5 4 4 8 11 12 12 12 12 12 10 9 9 10 11 12 11 10 10 10 9 10 12 13 14 15 15 15 15 16 16 16 16 18 20 23 23 25 26 28 28 26 24 22 20 18 17 18 19 19 20 21 21 20 20
4 3 2 2 1 2 5 5 3 3 3 5 4 3 3 3 2 3 4 4 7 10 5 8 13 14 9 4 4 4 3 3 2 5 9 11 13 12 11 11 12 11 10 10 9 11 12 11 11 11 10 10 11 11 12 14 15 14 14 15 15 15 16 18 20 22 23 23 25 26 26 26 26 25 23 20 18 18 18 17 17 18 19 20 19 18
5 8 7 4 1 5 6 3 3 2 3 5 5 6 5 4 3 5 5 5 8 6 1 2 7 11 11 8 9 5 4 5 3 4 7 11 13 12 12 11 11 10 11 11 9 9 11 11 12 12 11 11 10 10 12 14 15 14 13 14 16 17 19 20 21 22 23 24 25 25 25 25 24 23 23 22 21 19 16 15 15 15 16 17 18 17
3 6 9 7 3 8 11 8 5 4 6 9 8 7 7 6 6 7 7 7 7 3 2 2 3 6 7 7 13 10 4 7 5 5 4 8 12 12 12 11 10 10 10 10 9 9 9 11 13 13 12 12 11 11 11 12 14 14 12 13 17 20 21 22 22 23 24 24 24 24 24 24 23 23 23 23 21 18 16 16 17 16 16 17 17 16
6 4 9 11 5 11 16 13 8 5 7 10 9 7 8 6 7 8 7 7 5 1 2 3 4 5 4 2 3 3 6 7 5 5 4 5 9 10 10 11 10 11 10 9 9 9 10 12 13 13 12 12 12 12 12 12 14 13 13 16 20 22 22 22 23 24 24 24 24 23 23 23 23 23 23 22 21 20 19 19 19 18 18 17 16 14
8 5 8 8 4 12 16 12 9 5 5 7 6 8 9 6 6 7 3 1 2 2 2 5 4 5 3 2 5 5 6 6 6 6 6 6 8 9 9 10 10 10 10 9 9 9 11 14 13 13 13 12 12 13 13 13 14 14 15 19 21 22 23 24 24 24 24 24 24 23 23 23 23 22 22 22 21 21 20 19 19 18 17 16 14 13
6 3 6 5 2 9 8 7 10 6 3 5 6 9 4 1 3 6 2 2 0 7 5 6 5 5 3 3 6 7 5 6 6 6 7 8 9 10 9 9 10 10 10 10 9 10 12 14 14 13 13 13 14 14 14 15 16 17 19 22 22 23 24 24 24 24 24 24 24 23 22 22 22 22 22 22 21 20 19 18 17 16 16 15 13 12
4 2 4 5 5 4 2 1 5 2 1 4 5 6 3 3 3 4 5 2 4 10 6 6 9 8 6 5 5 8 6 7 8 8 8 8 9 10 9 10 11 11 11 10 10 11 12 14 14 14 13 14 14 15 15 16 18 19 20 23 24 25 25 25 25 24 24 24 24 23 22 22 22 22 22 22 21 20 19 18 17 16 15 14 13 12
4 4 3 3 3 4 2 2 4 3 3 1 1 2 3 3 5 5 5 5 7 10 7 7 11 9 8 6 6 9 11 10 11 10 10 10 11 11 10 11 13 12 11 11 11 10 11 14 15 15 15 15 15 15 16 17 20 20 21 22 24 25 25 25 25 25 24 24 24 24 24 23 23 22 22 21 21 20 19 18 17 16 15 14 12 11
4 5 3 0 1 5 5 5 7 8 6 0 2 3 3 3 4 5 6 4 6 8 8 8 9 7 8 9 11 14 14 13 14 12 11 12 12 11 11 12 13 13 12 11 11 10 11 15 16 16 17 16 17 16 16 19 21 22 22 23 23 23 24 24 25 26 25 25 25 25 24 24 23 22 22 21 20 20 19 18 17 16 14 13 12 11
3 5 4 0 1 5 6 8 11 11 9 7 6 7 6 3 1 3 5 5 6 7 7 8 8 5 3 6 12 16 15 15 15 12 11 11 12 12 12 12 13 13 12 12 11 11 13 16 17 17 17 17 18 18 17 20 23 22 23 23 23 24 25 25 26 26 26 26 25 25 25 24 23 22 22 21 20 20 19 18 17 15 14 13 11 10
5 5 5 3 4 7 7 6 7 6 7 9 9 10 10 8 5 4 8 7 5 6 6 6 9 6 1 1 3 7 10 12 13 12 10 10 12 12 11 13 13 13 13 13 12 11 13 16 17 18 19 19 19 19 18 20 22 22 23 24 24 24 25 26 26 26 26 26 25 25 24 24 23 22 22 21 21 20 19 18 17 15 14 12 11 10
3 2 6 6 5 6 3 3 2 1 2 4 6 8 9 9 9 9 8 4 4 6 5 4 9 5 2 2 2 2 2 4 8 10 10 9 10 11 10 12 12 12 12 13 12 11 13 16 17 17 18 19 19 19 19 20 21 23 25 25 24 25 26 27 27 26 26 26 25 24 24 24 23 23 22 21 21 20 19 17 16 15 13 12 11 10
4 1 6 5 4 3 3 3 2 2 1 5 7 8 9 10 10 8 4 0 3 7 5 5 9 5 2 1 2 3 2 3 4 6 9 8 8 9 10 11 11 11 12 12 10 10 12 15 16 16 18 18 18 18 19 20 20 22 24 25 25 26 26 27 26 26 26 26 24 23 24 24 24 23 22 21 20 19 18 16 16 15 14 13 12 11
4 4 4 3 5 5 4 5 4 3 4 7 8 9 9 9 6 3 1 1 6 9 8 7 10 4 3 1 0 1 0 3 3 4 7 7 7 8 9 9 10 11 11 12 11 10 12 14 15 16 18 18 18 19 20 21 21 22 24 25 26 26 26 26 26 26 26 26 24 23 24 25 24 24 23 21 20 19 18 17 16 15 14 13 12 10
6 6 7 7 8 9 9 7 5 6 5 4 7 11 13 13 12 7 3 5 9 9 8 10 10 2 3 1 2 2 3 4 5 5 5 5 6 8 9 9 10 10 11 13 12 11 11 12 14 17 18 18 20 20 21 23 22 22 23 24 26 26 25 26 27 27 26 26 25 24 25 26 25 24 23 20 20 20 19 18 17 16 15 13 11 10
2 3 11 14 13 13 13 7 3 6 7 8 14 16 17 17 17 10 6 9 10 6 9 15 12 4 4 6 6 5 5 4 5 6 6 6 7 8 9 9 9 9 10 11 11 10 10 11 14 18 18 18 20 20 22 23 23 22 23 23 25 26 25 26 28 27 26 26 26 26 27 26 25 25 23 21 21 22 21 20 18 17 15 13 11 10
1 4 13 18 18 19 18 9 5 9 11 14 17 18 18 16 16 15 14 16 11 7 12 15 13 11 11 11 10 8 7 6 6 8 8 8 9 8 8 9 10 10 10 10 11 11 12 13 13 16 18 18 19 20 21 22 22 23 24 24 26 28 26 27 28 28 28 28 28 28 28 27 26 25 23 23 24 24 23 22 20 17 15 13 11 10
3 8 12 14 17 21 20 12 7 9 11 12 14 17 18 18 20 21 21 20 15 12 14 9 13 17 14 13 14 11 9 10 9 8 7 7 8 8 9 9 10 10 11 12 13 13 13 12 11 14 17 18 19 20 20 21 22 24 26 26 28 30 29 29 30 29 29 29 29 29 28 27 26 24 24 25 26 25 24 23 21 18 16 13 12 10
3 7 10 11 13 20 20 15 10 8 9 11 12 15 17 20 25 24 22 22 20 22 21 9 11 16 12 13 15 12 9 8 5 5 6 7 8 9 9 9 9 10 11 12 13 12 12 11 11 13 15 17 19 21 21 21 23 24 25 27 29 31 31 31 30 30 30 30 30 29 27 26 27 27 27 27 27 26 25 24 22 19 17 15 14 12
4 5 5 6 8 16 17 16 14 11 11 13 13 14 18 21 23 22 21 21 19 23 24 13 9 11 7 8 9 6 4 4 5 5 6 6 8 9 8 8 8 9 10 11 11 11 10 10 11 13 15 17 19 21 21 21 21 23 25 29 31 33 33 32 31 31 32 31 30 28 26 28 29 29 29 29 28 27 26 25 23 20 19 18 17 15
6 4 0 3 7 14 15 15 15 11 8 12 16 21 23 19 16 18 20 19 19 22 22 14 12 9 6 7 4 4 5 6 7 7 6 5 6 8 8 8 8 9 10 10 10 10 10 11 11 13 16 17 19 20 21 22 23 25 28 31 32 32 32 32 32 32 32 31 29 28 28 30 31 31 30 29 29 28 27 25 23 21 21 20 19 17
7 6 3 5 7 12 11 9 8 4 4 10 17 22 22 16 13 15 18 21 22 20 16 14 13 8 7 8 5 4 5 7 7 7 6 6 7 7 8 8 8 8 9 9 9 10 10 11 12 15 17 18 21 23 25 26 29 30 30 30 30 30 30 32 33 32 31 30 29 29 30 31 32 32 31 31 30 29 27 26 24 23 23 22 20 19
7 8 7 6 6 8 5 7 5 5 10 11 8 8 14 18 18 17 19 21 20 16 12 9 5 5 9 9 10 9 8 8 8 9 9 8 8 8 8 8 7 7 7 7 8 9 9 11 12 15 17 19 22 24 24 27 29 28 27 28 28 29 30 32 32 32 32 31 30 30 31 32 32 32 32 32 31 30 29 28 27 25 25 23 22 22
9 9 7 5 4 4 4 7 5 10 11 6 3 3 7 14 19 19 19 20 18 15 14 11 4 6 9 9 8 9 10 8 6 6 7 7 8 9 8 7 7 6 7 7 7 7 8 11 12 13 16 18 20 21 22 24 25 23 24 26 27 28 30 31 31 31 32 31 30 31 32 33 33 33 32 32 32 31 30 30 29 28 26 25 25 25
11 9 5 4 4 1 4 8 8 6 3 1 3 3 3 5 12 14 15 18 18 16 14 15 10 5 6 5 4 4 5 5 3 2 3 4 6 7 8 8 7 7 6 7 7 8 10 12 13 14 15 16 17 19 20 21 22 21 21 23 25 26 27 28 29 30 31 30 31 32 33 34 34 34 34 33 33 33 33 32 31 29 28 28 27 26
10 10 6 5 6 5 6 8 5 6 6 4 3 4 3 4 10 13 12 14 14 13 12 14 11 6 7 4 4 5 5 5 1 3 5 5 5 5 4 4 6 6 6 7 8 9 11 12 12 13 14 15 17 18 18 19 21 21 20 21 22 24 25 26 28 30 30 30 32 33 34 35 36 35 35 34 34 35 35 34 32 31 30 30 28 27
5 8 9 8 6 6 7 8 5 7 8 5 3 4 2 1 4 9 8 7 5 7 11 11 10 8 9 6 4 5 5 3 3 5 6 8 7 5 3 3 5 7 8 9 9 9 10 11 12 13 14 15 16 17 18 19 21 21 21 21 22 23 24 25 28 29 30 32 33 34 35 36 36 36 36 35 36 36 35 34 33 32 32 31 29 28
1 1 5 6 4 5 7 7 7 7 4 2 2 1 2 2 3 7 2 4 2 4 8 10 9 8 10 8 7 6 5 4 6 4 6 9 9 8 7 5 6 7 9 10 10 10 11 12 12 13 14 14 15 17 18 20 21 21 21 22 22 22 24 26 29 30 31 33 34 34 35 36 36 36 36 36 37 36 35 34 33 33 32 30 29 28
3 2 4 6 5 6 8 7 5 3 1 1 2 3 1 3 4 8 2 4 3 2 3 7 8 8 9 9 8 7 6 6 5 2 5 8 8 7 8 8 8 7 8 9 9 11 12 14 15 15 15 16 17 18 19 20 21 21 22 22 22 23 26 28 30 30 31 32 32 33 35 35 36 36 36 36 36 35 34 34 33 32 31 30 29 28
4 3 4 6 7 8 9 6 3 1 1 2 2 3 2 1 2 6 4 2 3 3 2 4 7 8 10 10 7 6 6 3 2 3 5 6 7 6 7 9 9 8 8 9 11 12 13 15 16 16 17 17 17 18 19 20 21 22 21 21 23 25 26 27 27 27 28 29 29 31 32 33 34 35 35 35 34 33 33 32 32 32 31 30 29 28
4 4 3 5 6 5 5 4 2 2 2 3 3 1 1 1 3 4 2 2 2 4 3 4 6 7 9 10 9 6 4 4 4 4 5 5 6 6 6 8 9 8 8 9 11 12 14 15 15 15 16 16 18 19 20 21 22 23 22 22 24 25 24 24 24 24 25 26 26 28 29 30 31 31 32 32 31 31 31 31 31 31 30 29 28 27
5 5 4 5 5 3 2 4 3 2 2 7 7 3 1 2 3 4 3 2 1 3 5 4 4 6 7 8 7 5 5 5 4 4 5 5 5 6 7 7 7 8 9 10 12 13 15 16 16 16 16 17 18 19 21 23 24 23 23 24 24 22 22 23 23 23 24 25 25 27 27 28 29 29 29 30 31 31 31 31 30 30 29 29 28 27
3 4 3 4 4 3 4 5 2 1 4 7 5 3 2 2 2 5 6 3 1 2 4 3 4 6 6 6 5 5 5 5 4 4 5 4 5 6 6 6 7 8 9 11 13 15 17 17 17 17 16 17 18 19 21 24 24 24 24 24 23 21 22 24 24 24 25 26 26 27 27 27 28 29 29 30 30 30 31 30 30 30 29 29 28 27
1 1 0 1 2 2 2 2 1 1 4 5 1 1 4 4 2 4 6 4 2 2 3 2 3 5 5 4 5 6 5 4 4 4 4 4 4 4 5 6 8 9 10 11 12 15 16 16 16 15 15 16 17 19 22 25 25 26 26 25 23 23 25 26 26 27 28 28 28 29 29 29 29 29 30 30 30 30 30 31 30 30 30 29 28 27
1 2 1 0 1 1 1 2 2 1 4 4 2 2 3 4 2 3 5 4 2 3 4 4 4 4 6 6 6 5 5 5 5 4 4 4 4 4 4 5 7 9 10 11 11 13 15 15 14 13 14 15 18 20 22 25 27 28 28 25 24 26 27 28 29 29 29 29 30 30 30 30 30 30 30 30 30 30 30 31 31 31 30 30 29 28
1 2 1 1 2 2 1 2 3 2 2 3 3 2 2 2 0 1 3 3 2 3 4 3 2 4 6 6 6 6 6 6 6 5 4 4 4 4 4 4 7 10 12 13 13 13 13 13 13 14 15 17 19 21 23 25 28 30 30 27 26 28 29 30 30 30 30 31 30 30 30 30 30 31 31 30 30 30 31 31 31 31 31 31 30 29
2 4 3 2 1 1 1 1 3 2 0 1 1 0 1 1 2 1 1 1 2 1 2 2 3 5 6 5 6 6 6 6 6 5 4 3 3 4 4 6 8 11 13 14 14 13 13 14 16 17 17 19 21 22 23 26 28 31 32 29 27 27 29 30 31 31 31 31 30 30 30 31 31 31 31 32 32 33 33 33 33 34 34 34 32 30
3 4 3 2 2 1 0 1 1 2 2 1 2 2 1 1 3 2 2 3 2 2 3 2 2 2 4 4 5 5 6 6 6 6 5 5 4 5 7 9 11 13 14 14 15 16 17 18 18 18 18 20 20 20 23 26 30 32 33 32 29 27 27 29 30 30 29 29 29 29 30 30 31 32 32 33 34 34 34 34 34 34 34 33 32 30
4 4 3 4 2 3 3 5 5 3 3 4 5 5 5 4 3 2 2 2 2 3 4 4 3 3 2 1 3 4 5 5 5 6 6 5 5 7 10 12 13 14 15 15 16 17 18 18 18 17 18 20 20 20 22 25 28 29 30 31 30 28 27 27 26 26 27 27 28 29 29 29 30 32 32 31 32 33 33 32 32 33 32 31 29 27
4 4 4 4 3 2 3 7 6 2 2 3 6 8 8 5 4 5 5 5 4 4 4 5 4 3 1 1 2 4 5 5 5 6 6 4 6 9 11 13 14 16 17 17 16 16 17 17 16 16 19 21 21 20 21 22 23 24 25 26 27 27 26 25 25 26 27 28 29 30 29 29 30 30 30 29 28 30 30 29 29 29 29 28 27 26
Wind_Direction
190 213 213 227 228 226 224 220 233 257 291 295 289 282 274 270 270 268 163 112 108 259 256 258 263 265 266 262 233 186 183 201 212 214 208 200 196 188 187 178 170 171 138 126 136 135 127 99 95 99 95 107 114 101 115 132 131 125 126 128 127 121 113 114 117 116 116 116 115 113 108 103 100 100 101 99 99 99 99 100 99 98 97 99 100 101
192 223 227 231 239 247 238 225 236 253 265 266 271 274 268 261 268 267 162 134 136 236 264 267 268 268 263 265 263 213 183 203 212 213 217 206 194 187 186 183 176 157 132 147 158 153 154 125 110 114 109 116 125 120 115 131 138 135 134 134 129 125 122 121 126 126 123 121 121 118 114 110 105 103 103 101 99 99 100 99 98 97 96 96 96 98
212 229 235 237 242 235 232 233 240 249 253 257 258 260 264 260 270 261 158 151 180 219 271 276 273 271 265 264 263 233 199 208 214 215 220 201 189 187 186 185 177 166 158 164 166 162 162 146 132 127 120 119 121 127 125 123 126 124 131 136 133 134 134 132 134 137 136 131 128 125 121 117 112 107 105 103 101 100 99 97 96 96 95 95 95 95
221 233 235 227 194 186 219 229 232 246 248 245 244 247 254 250 258 254 171 157 203 226 278 289 282 274 269 261 254 238 204 192 151 136 202 190 191 189 185 184 179 178 173 167 167 166 163 156 148 135 122 122 122 121 119 114 106 106 125 136 139 142 143 143 144 143 140 134 128 123 118 114 108 103 102 101 100 100 99 97 97 96 96 95 95 95
238 219 174 191 184 214 227 219 216 235 246 236 234 236 249 249 244 250 237 173 225 233 245 270 282 273 260 250 242 217 123 140 139 168 209 206 203 185 172 174 177 179 173 168 167 164 165 160 149 134 122 123 124 121 128 126 111 113 131 139 140 141 141 141 139 138 135 130 125 119 113 107 102 97 94 92 92 95 97 97 97 97 98 97 96 96
243 143 122 180 181 209 223 224 212 217 251 249 231 225 239 255 255 259 269 284 276 259 198 213 272 279 248 239 222 152 157 206 188 204 215 206 198 187 178 175 172 168 163 166 164 161 162 156 145 134 128 128 122 126 144 141 130 127 134 138 139 137 134 131 129 128 127 124 120 116 113 109 105 97 87 86 89 92 94 96 98 98 99 98 97 97
233 134 152 193 187 206 221 238 221 210 244 263 249 216 230 253 262 262 267 258 274 288 154 183 261 282 277 260 223 155 187 204 187 206 213 201 195 189 187 181 170 166 160 159 157 157 158 154 151 143 136 134 128 138 149 144 139 139 139 139 141 141 139 135 131 129 128 126 125 125 122 116 112 105 97 96 97 97 98 99 99 99 98 98 97 96
164 167 185 197 211 221 223 242 225 207 232 258 15 341 226 249 259 256 257 248 261 291 227 192 240 276 274 267 241 175 199 216 202 206 204 197 195 186 183 177 169 168 164 160 159 161 161 158 156 149 140 134 133 142 147 144 142 144 145 146 147 149 147 144 141 140 143 147 144 136 126 117 113 112 111 109 107 105 104 101 98 97 97 96 95 94
144 183 193 197 215 226 226 247 205 195 224 248 63 40 199 268 276 260 252 251 260 277 253 208 204 252 265 259 230 198 225 244 229 211 196 190 189 182 179 171 163 163 161 162 164 161 160 157 152 146 141 136 139 147 150 150 150 149 150 152 152 153 153 152 150 150 151 149 142 134 127 121 118 117 116 114 111 109 106 102 98 97 96 95 94 94
71 177 214 208 219 227 211 39 92 198 220 142 112 90 78 82 292 246 246 257 252 250 251 221 195 229 270 256 216 204 227 245 243 211 180 177 178 178 175 165 159 159 158 159 159 157 157 154 146 141 138 138 150 157 157 156 155 155 155 157 157 157 156 155 155 152 146 142 138 133 129 125 122 121 119 117 113 110 109 105 102 101 99 97 95 94
103 94 338 232 231 213 107 67 34 25 129 138 149 128 123 186 182 211 235 247 257 251 243 223 206 218 268 254 206 213 220 224 216 148 150 163 171 174 168 163 160 158 155 154 154 151 149 145 142 145 143 144 157 160 160 161 161 160 161 162 162 160 158 154 152 149 143 140 138 134 131 129 128 127 125 121 116 114 112 108 107 106 104 101 98 96
182 183 183 165 116 108 112 95 56 56 125 163 185 189 200 211 181 217 223 202 247 256 236 215 208 210 234 238 203 200 120 121 137 139 158 166 169 169 163 162 161 157 154 154 154 150 148 147 149 154 150 149 156 158 163 166 165 165 165 167 166 162 159 154 151 149 145 142 139 136 134 132 132 132 130 126 124 123 119 114 112 110 107 104 102 99
219 218 188 138 156 188 175 160 119 118 189 198 195 192 209 226 213 227 221 203 236 252 96 152 198 213 236 243 241 237 124 118 97 102 153 167 167 164 159 160 158 155 156 157 158 156 156 158 159 161 157 154 157 159 163 166 165 166 164 166 165 161 158 155 152 151 149 145 141 139 138 136 136 137 137 134 131 127 123 120 119 116 113 111 108 104
212 215 187 173 193 195 194 195 181 173 186 195 192 188 200 217 235 243 234 228 237 232 90 124 179 232 257 241 238 238 132 108 94 85 115 155 161 159 155 157 154 153 158 160 161 160 161 163 162 162 159 158 160 161 162 164 165 163 157 160 163 160 159 157 155 154 152 148 145 144 143 142 143 143 141 138 136 135 132 131 129 126 123 118 113 107
218 246 184 182 173 176 193 212 214 184 178 197 198 199 211 217 239 251 246 246 252 157 135 167 172 219 234 153 202 188 109 103 104 104 93 120 147 150 149 153 153 157 162 161 162 164 164 163 161 161 161 161 162 163 163 164 164 161 157 162 164 161 160 160 159 158 155 152 150 149 148 148 148 148 146 144 142 141 139 138 135 131 126 120 113 107
227 261 164 161 141 166 187 214 216 188 178 195 196 212 225 229 248 263 267 256 306 331 202 189 219 246 230 116 113 117 123 127 122 127 131 128 139 145 152 159 162 165 166 165 166 165 164 164 163 162 162 161 162 164 165 166 165 162 162 165 165 162 163 163 162 161 159 157 155 153 153 154 154 153 150 147 144 143 141 139 136 132 128 123 117 112
219 257 138 134 152 173 190 207 193 190 174 169 192 211 214 17 288 265 244 108 3 279 246 180 223 262 254 217 148 137 149 146 140 149 153 146 147 157 166 168 171 171 169 170 170 167 166 165 165 164 164 164 165 166 168 168 168 167 167 167 166 165 166 167 166 165 163 160 159 158 158 158 158 155 152 148 146 145 143 141 139 135 132 127 123 117
218 265 161 172 186 168 2 319 182 211 137 150 196 201 124 45 324 273 261 252 237 259 251 183 216 228 218 224 147 149 176 167 165 169 159 152 158 174 181 175 176 174 170 171 170 168 167 165 166 166 166 167 167 168 168 170 171 171 170 170 169 170 169 169 169 168 166 164 162 162 162 161 160 156 153 151 149 149 147 145 142 139 134 129 125 118
204 245 199 182 184 132 93 196 192 221 217 191 275 193 147 224 231 209 234 258 244 250 260 224 225 225 218 215 158 175 196 182 171 170 169 170 173 184 185 176 177 173 169 173 173 171 168 168 170 169 168 168 168 169 169 172 175 174 173 173 172 173 172 172 172 170 168 167 165 165 165 164 162 159 157 155 154 154 152 149 145 141 136 130 123 114
187 229 226 325 29 133 147 193 197 196 195 242 315 231 209 253 244 216 218 245 247 250 267 253 231 222 222 207 180 188 197 182 171 173 183 182 180 186 182 174 177 175 174 177 176 174 170 171 172 170 169 168 168 169 170 176 180 177 176 175 174 175 175 174 174 172 171 171 169 169 168 167 165 163 162 160 159 158 154 151 147 142 136 129 119 108
166 215 226 47 83 162 177 202 205 198 182 181 208 210 201 193 256 279 246 234 242 248 256 260 254 240 213 199 192 194 193 181 171 170 181 181 179 183 179 174 177 177 177 178 177 174 170 169 170 169 169 168 169 172 174 180 183 179 179 178 177 178 178 176 175 174 175 175 174 173 171 170 169 167 166 164 163 161 157 154 149 143 136 128 118 108
177 203 214 180 183 207 207 199 208 210 187 190 200 200 201 195 189 240 240 218 218 245 246 262 270 261 129 86 221 194 184 174 165 163 167 174 176 175 175 176 176 177 179 179 177 172 166 168 168 167 167 169 172 176 178 182 183 182 181 180 180 181 181 179 178 177 178 178 177 176 174 173 172 171 170 169 167 165 161 157 151 144 137 130 123 115
145 174 221 216 204 208 192 104 82 348 265 244 233 213 208 203 196 212 230 202 180 228 242 268 275 271 96 60 8 29 90 118 136 149 152 162 167 162 166 173 175 178 178 177 174 166 162 166 165 163 165 170 174 176 177 180 183 184 185 183 184 184 183 182 181 180 181 180 179 178 177 176 176 175 174 173 172 169 164 159 152 146 141 136 133 129
68 122 224 241 237 190 125 115 104 61 293 257 245 221 213 216 211 212 237 4 198 218 211 235 255 253 97 73 25 22 21 67 97 128 133 138 149 156 164 168 173 178 176 174 169 156 156 161 161 163 168 174 176 175 177 181 183 185 187 187 187 187 185 184 184 184 183 182 181 180 180 181 180 179 179 177 176 172 166 160 155 152 150 148 146 143
147 181 199 235 245 227 195 194 189 173 201 226 228 214 215 223 213 192 11 320 244 228 201 222 252 245 110 101 25 22 187 142 120 108 118 131 147 160 167 169 174 177 175 173 165 156 160 164 167 171 175 178 178 176 179 183 185 186 187 189 190 188 186 187 187 187 186 185 183 183 185 186 185 184 183 181 179 175 170 166 164 162 161 160 159 156
178 179 172 196 228 228 222 217 196 180 182 212 224 212 211 211 201 195 207 225 239 234 206 224 250 258 97 188 224 203 197 166 137 122 126 144 155 162 170 174 177 178 178 177 171 165 167 170 174 178 179 180 179 178 180 184 185 185 185 189 191 189 188 190 192 190 188 187 187 189 191 191 189 188 186 185 185 182 177 175 174 173 173 171 169 168
165 190 191 205 219 226 234 237 141 136 157 196 212 210 209 208 204 204 217 226 230 233 228 230 234 227 202 213 215 203 199 192 163 158 168 175 171 171 173 174 177 181 183 180 175 169 171 179 185 185 182 180 179 179 181 184 184 183 183 186 190 189 189 193 194 192 190 190 192 195 196 194 193 191 189 191 192 187 184 184 183 183 182 180 179 182
117 223 213 218 227 235 245 249 165 163 191 207 209 209 208 205 202 204 218 225 215 220 245 232 213 219 218 203 206 205 196 200 193 186 186 181 177 175 170 169 174 181 182 183 183 180 183 189 189 185 182 178 176 178 181 183 182 184 186 187 191 192 192 194 194 193 193 195 197 199 199 197 196 194 193 196 195 191 190 191 191 190 189 188 191 195
169 228 222 220 233 242 247 248 213 204 221 220 209 209 204 198 201 206 218 225 211 221 246 216 189 215 215 193 202 204 194 201 199 187 172 157 163 165 165 170 176 181 182 185 189 190 192 194 186 182 179 174 174 177 179 180 181 185 189 191 194 196 196 196 197 196 197 199 201 202 200 198 198 196 197 200 198 196 197 197 197 197 196 199 205 209
191 239 228 213 233 246 244 240 229 224 241 239 224 214 201 198 205 207 215 222 216 228 241 224 205 227 215 188 197 195 193 200 176 146 137 142 157 163 169 178 181 185 188 190 193 194 195 195 185 179 177 174 177 180 180 181 181 184 188 192 196 198 198 200 200 199 200 201 203 203 201 200 200 200 202 204 203 202 202 203 203 203 205 210 216 220
197 237 231 200 235 251 243 238 235 230 237 245 244 232 217 210 208 207 215 219 218 231 240 238 244 247 209 174 179 158 148 139 120 143 152 150 162 165 174 186 184 189 193 193 196 194 193 194 186 179 178 178 180 181 180 181 180 183 189 195 200 201 202 203 202 202 203 204 205 204 202 204 205 205 207 208 207 207 207 209 209 209 213 218 223 226
190 215 237 150 225 250 242 230 233 234 238 251 253 243 232 219 207 206 215 215 213 225 231 229 241 239 165 133 119 98 131 153 161 171 159 156 172 172 181 191 188 193 195 192 193 189 187 190 187 184 182 179 180 182 185 187 186 191 196 200 203 203 202 204 204 205 206 206 205 203 204 208 209 209 211 212 212 211 213 215 216 217 221 224 228 232
184 199 209 175 214 252 242 209 210 216 230 244 246 241 231 217 203 207 216 217 215 218 220 222 233 223 142 136 154 151 166 179 182 178 171 176 179 182 195 195 190 195 193 187 185 183 186 190 191 191 187 185 188 192 195 197 197 199 200 200 202 202 202 205 206 206 206 205 205 205 207 211 212 212 214 216 216 216 218 220 222 224 227 229 231 235
186 199 212 192 215 249 216 136 137 202 223 234 247 246 228 212 203 207 217 221 217 215 222 232 227 153 146 166 176 178 189 195 190 189 187 179 174 185 200 199 196 194 183 177 178 179 185 187 188 192 191 192 196 198 200 202 202 202 203 203 204 204 203 205 206 206 208 207 208 210 212 214 214 214 217 219 220 220 222 225 227 229 231 232 234 237
185 198 208 199 221 245 143 131 178 222 227 242 340 330 242 216 205 209 222 224 217 215 226 237 225 156 170 182 175 178 190 184 176 184 180 172 174 179 189 197 196 182 167 168 173 175 180 180 181 188 192 195 199 198 199 202 202 202 204 205 203 202 203 205 206 209 212 211 212 213 215 216 216 217 219 221 222 224 226 228 230 231 233 235 236 239
180 195 206 200 205 182 144 180 209 238 243 289 331 297 262 203 192 203 227 231 218 209 213 224 223 176 148 157 134 130 150 133 122 183 175 177 184 178 186 195 185 172 169 171 174 175 178 180 182 186 189 189 191 191 191 195 196 195 197 199 199 201 205 208 209 212 214 213 213 215 216 218 218 219 221 223 224 226 228 230 231 232 234 236 237 238
186 192 194 203 200 189 202 213 235 298 284 246 220 199 175 175 184 192 219 234 218 199 196 212 216 163 122 123 96 81 98 110 142 230 194 191 198 183 180 175 160 165 167 161 167 174 179 183 184 184 185 183 184 187 188 190 192 192 193 196 200 203 206 208 211 214 215 214 216 217 218 220 220 221 223 224 226 228 230 232 233 233 235 236 236 237
203 198 194 206 203 189 216 227 234 265 259 234 201 175 141 330 185 178 207 234 206 177 180 194 201 168 137 125 113 106 111 138 221 224 186 182 189 175 153 121 128 145 147 148 156 162 170 181 183 184 187 185 186 192 193 193 194 193 194 197 200 202 205 209 214 216 216 217 218 219 221 222 223 224 225 225 228 231 233 234 234 234 236 236 236 238
191 194 190 206 201 181 209 223 218 229 233 199 195 135 57 346 96 114 181 254 197 169 180 185 189 168 147 146 148 139 141 193 232 224 170 172 178 174 171 150 126 128 136 147 158 161 168 175 174 177 181 180 184 190 193 194 192 190 192 196 198 201 205 210 216 218 218 221 221 221 224 225 225 227 227 228 232 235 235 235 235 236 237 237 237 238
168 166 185 206 212 199 206 220 229 241 267 210 187 125 58 321 96 115 168 248 196 175 183 177 173 158 151 154 153 156 182 210 228 196 144 155 159 159 162 152 141 139 136 141 153 159 165 168 166 169 174 178 184 188 191 192 190 188 192 195 197 202 209 215 220 221 223 225 224 225 227 228 229 229 230 232 236 237 237 236 236 237 237 236 236 237
182 193 197 209 217 212 213 225 248 256 228 221 188 137 128 3 107 156 197 231 157 167 154 152 155 151 154 158 164 185 200 192 145 119 124 131 133 134 133 131 137 141 138 147 159 160 163 167 170 174 178 181 187 191 192 192 190 191 194 196 199 207 214 219 222 223 225 226 227 228 229 230 231 233 234 236 238 237 236 236 236 237 237 235 235 235
174 179 194 210 215 213 216 229 256 270 193 144 107 63 134 163 170 184 182 50 138 165 146 140 149 152 161 171 183 193 164 118 122 132 128 129 132 132 126 121 125 128 132 152 166 165 165 170 175 179 184 187 192 195 195 193 193 194 195 197 205 213 217 219 220 221 223 225 227 228 230 231 233 235 236 237 236 234 234 233 234 235 234 233 233 234
174 177 192 201 196 187 202 209 221 264 164 139 125 94 259 210 170 141 117 52 53 138 140 147 158 163 171 179 184 168 121 120 137 127 119 125 125 129 137 136 136 139 143 155 170 175 175 177 182 187 191 195 199 201 198 196 196 197 198 204 213 219 218 217 218 219 221 224 226 228 229 230 232 233 233 234 233 231 230 229 230 230 230 229 230 232
192 189 200 202 188 177 194 200 209 240 177 161 142 131 174 183 147 137 135 116 75 152 159 160 169 180 186 180 165 142 122 128 136 122 119 120 118 130 141 139 140 147 152 163 176 182 182 184 190 196 199 203 206 206 203 202 201 200 205 214 221 222 219 218 218 219 221 223 224 226 228 228 229 230 231 231 230 227 226 226 226 226 226 227 228 230
211 158 178 217 184 172 183 178 14 12 163 157 70 43 125 119 116 133 125 118 141 170 167 185 190 183 180 165 143 139 144 151 143 138 139 132 131 143 145 147 155 159 162 170 180 187 191 195 200 204 206 212 216 214 212 211 208 207 215 223 225 224 222 220 219 221 223 224 225 226 227 227 227 228 228 228 226 224 223 222 222 222 223 224 225 228
40 66 357 335 131 98 86 121 90 85 144 123 17 2 104 116 146 136 118 132 177 166 169 203 206 167 160 161 153 152 163 157 144 147 152 143 143 145 134 148 166 168 169 177 186 195 201 204 208 213 216 223 227 226 223 220 216 218 226 231 229 227 226 223 222 223 224 225 227 227 227 226 225 225 225 224 223 222 222 222 221 220 222 223 224 228
166 150 187 237 165 165 154 107 80 73 135 111 51 25 80 99 218 154 130 156 177 170 184 200 144 125 144 161 167 166 162 154 151 154 149 141 150 154 151 167 181 184 187 192 197 204 206 207 213 219 223 228 232 234 233 230 227 229 233 234 231 230 228 225 225 226 226 227 228 228 227 226 224 223 221 220 219 218 218 221 222 221 221 223 224 225
165 149 168 208 190 139 114 70 49 35 70 67 44 91 125 138 216 236 104 70 48 77 127 86 85 126 152 170 175 161 147 154 165 160 148 153 165 167 177 192 197 199 201 202 205 209 210 212 217 221 226 233 239 241 241 240 239 238 235 232 232 232 230 229 229 229 229 230 229 228 228 226 224 223 221 220 219 218 217 219 221 222 223 225 226 226
117 146 161 150 133 110 108 179 147 129 135 195 252 258 270 228 214 196 83 61 47 90 116 89 65 116 152 168 168 151 145 159 172 167 162 169 180 189 202 209 211 213 212 211 213 215 214 216 221 224 232 241 247 248 247 248 248 245 239 234 233 233 232 233 233 232 232 232 230 229 229 227 224 223 222 221 220 219 220 222 224 225 226 229 230 232
149 177 153 116 155 209 189 170 169 149 141 179 202 218 233 234 213 186 143 141 173 172 162 152 107 76 81 121 134 150 164 167 166 169 173 179 189 200 210 215 218 223 224 221 220 220 218 222 227 232 240 249 253 252 252 253 252 249 244 239 237 237 237 237 237 235 235 233 232 232 230 228 225 223 222 222 222 220 221 224 226 228 230 233 236 238
179 187 155 143 194 237 151 156 166 142 81 161 181 195 210 211 194 197 204 196 185 182 181 170 145 124 150 174 142 167 182 178 175 178 182 196 203 205 214 220 221 226 228 225 221 221 223 227 232 238 247 253 255 254 255 256 255 254 252 249 246 245 244 243 241 240 239 237 236 235 232 230 228 224 221 223 225 224 223 225 229 231 233 235 239 243